East Taunton, MA

9:13 AM EST on January 22, 2017 (GMT -0500)
Taunton Municipal

Weather History for KTAN - October, 2013

Change the Weather History Date:

Saturday, October 19, 2013

  Actual Average Record
Temperature  
Mean Temperature 48 °F -  
Max Temperature 66 °F 61 °F 82 °F (2016)
Min Temperature 33 °F 38 °F 19 °F (1974)
Degree Days  
Heating Degree Days 16    
Moisture  
Dew Point 37 °F    
Average Humidity 86    
Maximum Humidity 100    
Minimum Humidity 36    
Precipitation  
Precipitation 0.00 in - - ()
Sea Level Pressure  
Sea Level Pressure 29.94 in    
Wind  
Wind Speed 1 mph (South)    
Max Wind Speed 12 mph    
Max Gust Speed -    
Visibility 4 miles    
Events Fog , Rain    
Averages and records for this station are not official NWS values.
T = Trace of Precipitation, MM = Missing Value Source: NWS Daily Summary

Daily Weather History Graph

Daily Weather History Graph

Search for Another Location

Airport or City:

Trip Planner

Search our weather history database for the weather conditions in past years. The results will help you decide how hot, cold, wet, or windy it might be!

Date:

Astronomy

Oct. 19, 2013 Rise Set
Actual Time 7:01 AM EDT 5:56 PM EDT
Civil Twilight 6:32 AM EDT 6:24 PM EDT
Nautical Twilight 6:00 AM EDT 6:56 PM EDT
Astronomical Twilight 5:28 AM EDT 7:28 PM EDT
Moon 6:20 PM EDT (10/19) 7:36 AM EDT (10/19)
Length of Visible Light 11h 51m
Length of Day
10h 54m
Waxing Gibbous, 99% of the Moon is Illuminated
Oct 19
Waxing Gibbous
Oct 26
Last Quarter
Nov 3
New
Nov 10
First Quarter
Nov 17
Full

Hourly Weather History & Observations

Time (EDT) Temp. Dew Point Humidity Pressure Visibility Wind Dir Wind Speed Gust Speed Precip Events Conditions
12:00 AM 39.9 °F 37.9 °F 93% 29.93 in 1.8 mi Calm Calm - N/A   Clear
12:08 AM 39.9 °F 37.9 °F 93% 29.92 in 1.2 mi Calm Calm - N/A   Clear
12:11 AM 39.9 °F 37.9 °F 93% 29.92 in 2.0 mi Calm Calm - N/A   Clear
12:18 AM 39.9 °F 37.9 °F 93% 29.93 in 5.0 mi Calm Calm - N/A   Clear
12:47 AM 39.2 °F 37.4 °F 93% 29.94 in 1.8 mi Calm Calm - N/A   Clear
12:52 AM 39.0 °F 37.0 °F 93% 29.94 in 1.2 mi Calm Calm - N/A   Clear
1:05 AM 39.0 °F 37.0 °F 93% 29.94 in 0.8 mi Calm Calm - N/A   Clear
1:09 AM 39.0 °F 37.0 °F 93% 29.94 in 1.5 mi Calm Calm - N/A   Clear
1:11 AM 39.0 °F 37.0 °F 93% 29.94 in 4.0 mi Calm Calm - N/A   Clear
1:21 AM 37.9 °F 37.0 °F 97% 29.95 in 1.5 mi Calm Calm - N/A   Clear
1:29 AM 37.9 °F 36.0 °F 93% 29.95 in 1.0 mi Calm Calm - N/A   Clear
1:33 AM 37.9 °F 36.0 °F 93% 29.95 in 2.0 mi Calm Calm - N/A   Clear
1:52 AM 37.9 °F 36.0 °F 93% 29.95 in 4.0 mi Calm Calm - N/A   Clear
1:57 AM 37.0 °F 36.0 °F 96% 29.95 in 1.8 mi Calm Calm - N/A   Clear
2:02 AM 37.0 °F 35.1 °F 93% 29.95 in 0.8 mi Calm Calm - N/A   Clear
2:32 AM 37.0 °F 35.1 °F 93% 29.96 in 1.5 mi Calm Calm - N/A   Clear
2:35 AM 37.0 °F 35.1 °F 93% 29.96 in 4.0 mi Calm Calm - N/A   Clear
2:52 AM 37.0 °F 35.1 °F 93% 29.96 in 10.0 mi Calm Calm - N/A   Clear
2:58 AM 36.0 °F 35.1 °F 97% 29.96 in 1.5 mi Calm Calm - N/A   Clear
3:00 AM 36.0 °F 35.1 °F 97% 29.96 in 1.0 mi Calm Calm - N/A   Mist
3:07 AM 36.0 °F 35.1 °F 97% 29.96 in 0.8 mi Calm Calm - N/A   Mist
3:13 AM 37.0 °F 35.1 °F 93% 29.96 in 1.5 mi Calm Calm - N/A   Clear
3:20 AM 36.0 °F 35.1 °F 97% 29.95 in 3.0 mi Calm Calm - N/A   Clear
3:23 AM 36.0 °F 35.1 °F 97% 29.95 in 2.5 mi Calm Calm - N/A   Partly Cloudy
3:37 AM 35.1 °F 34.0 °F 96% 29.96 in 6.0 mi Calm Calm - N/A   Clear
3:49 AM 35.6 °F 33.8 °F 93% 29.96 in 1.5 mi Calm Calm - N/A   Clear
3:50 AM 35.6 °F 33.8 °F 93% 29.96 in 1.2 mi Calm Calm - N/A   Clear
3:52 AM 35.1 °F 34.0 °F 96% 29.96 in 1.2 mi Calm Calm - N/A   Clear
3:59 AM 36.0 °F 34.0 °F 93% 29.96 in 2.0 mi Calm Calm - N/A   Clear
4:10 AM 35.1 °F 34.0 °F 96% 29.96 in 1.2 mi Calm Calm - N/A   Clear
4:34 AM 35.1 °F 34.0 °F 96% 29.96 in 1.0 mi Calm Calm - N/A   Mist
4:46 AM 35.6 °F 33.8 °F 93% 29.96 in 1.5 mi Calm Calm - N/A   Partly Cloudy
4:52 AM 35.1 °F 33.1 °F 92% 29.96 in 1.2 mi Calm Calm - N/A   Partly Cloudy
5:22 AM 35.1 °F 33.1 °F 92% 29.97 in 0.5 mi Calm Calm - N/A Fog Fog
5:36 AM 35.1 °F 33.1 °F 92% 29.98 in 1.8 mi Calm Calm - N/A   Clear
5:48 AM 33.8 °F 33.8 °F 100% 29.98 in 1.0 mi Calm Calm - N/A   Clear
5:52 AM 34.0 °F 33.1 °F 96% 29.98 in 2.0 mi Calm Calm - N/A   Clear
6:00 AM 34.0 °F 32.0 °F 92% 29.98 in 6.0 mi Calm Calm - N/A   Clear
6:07 AM 34.0 °F 32.0 °F 92% 29.98 in 1.8 mi Calm Calm - N/A   Clear
6:15 AM 34.0 °F 33.1 °F 96% 29.97 in 3.0 mi Calm Calm - N/A   Clear
6:28 AM 34.0 °F 32.0 °F 92% 29.98 in 2.5 mi Calm Calm - N/A   Clear
6:34 AM 34.0 °F 32.0 °F 92% 29.98 in 1.2 mi Calm Calm - N/A   Clear
6:44 AM 34.0 °F 33.1 °F 96% 29.98 in 2.0 mi Calm Calm - N/A   Clear
6:52 AM 34.0 °F 32.0 °F 92% 29.97 in 1.8 mi Calm Calm - N/A   Partly Cloudy
6:54 AM 34.0 °F 32.0 °F 92% 29.97 in 0.8 mi Calm Calm - N/A   Mist
7:08 AM 34.0 °F 32.0 °F 92% 29.97 in 1.2 mi Calm Calm - N/A   Partly Cloudy
7:13 AM 34.0 °F 32.0 °F 92% 29.97 in 2.0 mi Calm Calm - N/A   Partly Cloudy
7:16 AM 34.0 °F 32.0 °F 92% 29.97 in 1.2 mi Calm Calm - N/A   Partly Cloudy
7:26 AM 35.1 °F 33.1 °F 92% 29.97 in 2.0 mi Calm Calm - N/A   Clear
7:35 AM 35.1 °F 34.0 °F 96% 29.97 in 1.8 mi Calm Calm - N/A   Clear
7:39 AM 35.1 °F 34.0 °F 96% 29.97 in 3.0 mi Calm Calm - N/A   Clear
7:52 AM 37.0 °F 36.0 °F 96% 29.97 in 3.0 mi Calm Calm - N/A   Clear
7:59 AM 37.9 °F 37.0 °F 97% 29.97 in 2.0 mi Calm Calm - N/A   Clear
8:08 AM 39.0 °F 37.9 °F 96% 29.98 in 6.0 mi Calm Calm - N/A   Clear
8:52 AM 45.0 °F 43.0 °F 93% 29.99 in 10.0 mi Calm Calm - N/A   Clear
9:52 AM 57.9 °F 44.1 °F 60% 29.99 in 10.0 mi Calm Calm - N/A   Clear
10:52 AM 63.0 °F 41.0 °F 45% 29.98 in 10.0 mi SSW 6.9 mph - N/A   Clear
11:52 AM 64.9 °F 37.0 °F 36% 29.96 in 10.0 mi SSW 5.8 mph - N/A   Clear
12:52 PM 64.9 °F 37.0 °F 36% 29.94 in 10.0 mi SW 11.5 mph - N/A   Clear
1:52 PM 64.9 °F 37.9 °F 37% 29.92 in 10.0 mi WSW 8.1 mph - N/A   Clear
2:52 PM 64.9 °F 42.1 °F 43% 29.90 in 10.0 mi WSW 8.1 mph - N/A   Clear
3:52 PM 64.0 °F 42.1 °F 45% 29.89 in 10.0 mi SSW 10.4 mph - N/A   Clear
4:52 PM 62.1 °F 44.1 °F 52% 29.87 in 10.0 mi SSE 5.8 mph - N/A   Clear
5:52 PM 57.9 °F 46.0 °F 65% 29.85 in 10.0 mi SE 3.5 mph - N/A   Clear
6:52 PM 57.0 °F 46.9 °F 69% 29.83 in 10.0 mi SE 3.5 mph - N/A   Clear
7:52 PM 57.9 °F 46.0 °F 65% 29.83 in 10.0 mi SSE 4.6 mph - N/A   Overcast
8:52 PM 57.0 °F 46.0 °F 67% 29.83 in 10.0 mi Calm Calm - N/A   Overcast
9:52 PM 55.9 °F 46.9 °F 72% 29.80 in 10.0 mi SE 5.8 mph - 0.00 in Rain Light Rain
10:52 PM 55.0 °F 46.9 °F 74% 29.79 in 10.0 mi Calm Calm - 0.00 in   Clear
11:52 PM 53.1 °F 48.9 °F 86% 29.77 in 10.0 mi SE 4.6 mph - N/A   Scattered Clouds